Wind_Speed
18 16 16 16 15 13 13 13 14 14 14 14 15 16 18 21 17 3 2 3 3 5 7 6 8 9 2 2 3 2 1 3 4 3 4 2 2 3 4 8 8 5 5 5 26
19 19 18 17 16 15 14 14 15 16 16 15 14 15 16 19 13 4 2 2 2 5 7 9 5 6 2 2 2 2 2 5 5 3 5 5 5 10 8 12 11 16 15 10 19
21 20 19 18 17 16 15 14 14 14 15 16 14 13 13 14 4 3 0 2 2 4 5 3 2 2 2 2 1 2 4 3 7 9 8 9 10 6 11 15 14 13 14 14 18
21 21 21 20 18 17 16 15 14 13 13 13 13 11 10 4 2 3 1 1 1 2 4 4 3 2 1 1 1 3 8 9 8 5 6 12 6 10 13 19 19 16 16 12 14
21 21 22 22 20 18 16 14 14 13 12 11 10 7 2 2 7 5 2 1 2 3 4 2 2 1 1 2 3 5 6 7 10 12 10 12 16 14 14 18 20 16 15 14 13
22 23 23 23 23 20 15 14 15 14 12 10 8 3 2 3 4 6 3 2 1 2 2 2 3 2 2 3 2 2 6 14 11 13 8 10 10 6 13 17 15 15 15 11 11
24 24 24 24 25 22 17 17 17 16 13 10 6 3 2 9 5 7 5 3 3 2 2 2 3 2 2 3 3 4 8 8 3 1 4 4 7 8 17 9 13 12 10 9 8
25 25 25 24 24 22 18 21 16 8 6 4 4 5 6 3 6 8 6 3 4 4 2 2 3 2 2 4 4 4 2 5 3 3 3 3 10 7 11 8 12 9 7 8 7
27 27 26 26 24 23 19 20 8 5 2 4 5 3 7 2 4 7 9 3 4 2 2 2 1 1 1 2 3 3 4 4 8 3 4 3 16 15 11 7 12 13 12 9 8
27 27 27 27 24 22 18 14 4 2 3 3 2 2 2 3 4 3 7 5 2 2 1 2 3 1 1 2 3 5 5 5 8 4 4 15 22 21 15 12 17 16 13 11 9
28 29 27 26 24 18 17 4 5 3 3 8 4 3 1 2 4 3 4 7 3 2 3 0 1 6 7 6 4 3 4 10 13 11 6 11 18 23 18 11 14 14 13 11 11
29 29 29 27 24 11 7 4 2 2 9 9 5 5 6 2 2 4 9 5 3 4 3 2 8 7 4 3 4 5 5 8 11 2 4 10 21 14 7 4 7 12 11 11 9
29 30 29 25 18 2 3 2 0 0 2 6 4 3 3 9 5 4 9 4 4 3 5 6 2 3 4 3 4 4 5 4 7 8 3 11 7 5 4 4 5 6 8 6 11
31 31 28 25 1 7 1 2 0 1 4 6 1 1 3 2 2 2 9 2 1 3 3 6 3 3 3 5 6 3 5 6 5 5 4 5 5 5 5 11 2 4 5 7 9
33 29 26 12 10 2 3 3 2 1 5 2 1 0 1 2 1 1 3 2 4 3 3 7 2 4 5 6 6 7 2 4 1 2 2 1 0 8 4 5 6 6 3 5 7
31 24 15 4 1 3 4 3 1 6 6 2 2 2 2 0 0 2 1 1 1 1 4 8 1 3 5 2 5 4 3 2 2 1 1 2 2 6 3 4 7 7 4 5 8
24 11 15 7 3 6 4 2 5 4 4 5 2 1 1 2 2 3 3 2 4 2 3 4 4 3 3 2 2 1 3 3 4 3 3 2 1 9 9 8 5 10 11 7 7
12 8 12 19 6 7 2 4 3 3 4 4 4 3 4 3 1 1 0 4 4 1 2 1 6 5 4 4 2 3 3 3 4 2 4 2 4 6 4 6 7 6 7 6 6
6 5 14 24 9 6 4 3 3 3 6 8 9 3 3 0 1 2 4 3 1 6 5 2 5 1 3 2 4 3 3 2 1 2 1 3 6 9 3 5 4 7 6 7 7
4 3 10 21 5 3 4 2 2 5 6 3 3 4 4 6 6 3 2 7 7 1 1 4 5 2 0 3 2 4 4 1 1 3 4 4 4 5 7 8 8 8 7 7 6
4 3 19 12 3 4 3 2 4 5 9 8 5 6 4 4 4 3 3 4 7 8 3 3 3 4 1 5 6 2 2 2 2 3 3 4 5 6 7 9 6 9 7 7 8
5 3 23 7 4 2 3 5 8 7 9 6 4 6 4 7 5 3 5 4 12 7 4 4 1 4 8 3 2 3 5 5 3 3 2 2 9 7 7 6 4 9 11 8 7
2 2 13 10 4 3 5 4 4 8 6 7 7 5 5 5 5 5 5 5 18 8 8 6 3 4 8 2 1 2 3 3 2 2 6 3 8 1 2 11 15 11 14 11 8
3 4 5 6 3 3 4 4 5 5 3 4 4 5 5 5 4 6 6 4 14 10 18 5 4 7 9 7 2 6 4 2 3 4 6 18 23 24 24 19 20 21 18 10 9
5 2 1 4 4 4 2 5 4 8 3 6 3 9 5 4 6 2 3 7 9 9 6 4 5 4 7 5 6 11 14 11 14 16 12 24 24 24 25 23 25 20 18 7 7
3 3 3 2 3 5 5 5 5 5 3 2 3 8 6 4 6 12 7 2 6 5 7 4 5 5 22 14 16 24 21 15 17 19 19 19 27 20 15 15 18 21 18 13 9
5 2 2 3 4 4 2 4 4 6 4 4 5 7 7 7 5 11 15 16 18 18 15 4 3 3 9 5 10 14 17 23 17 5 6 8 7 16 19 21 22 24 20 16 8
Wind_Direction
2 359 350 344 334 321 302 296 297 299 304 312 321 330 336 338 343 337 327 345 325 339 1 23 30 21 66 57 35 99 17 252 253 205 247 263 318 287 274 275 280 262 258 278 318
5 1 354 347 339 332 326 314 300 295 297 301 309 320 331 335 334 292 304 352 2 350 12 29 9 10 46 41 42 114 224 240 222 229 255 274 276 293 295 286 287 295 265 307 342
4 1 357 350 342 335 330 321 313 306 298 294 299 311 325 334 336 229 234 30 25 357 15 22 16 54 65 23 181 169 231 239 261 255 262 279 281 264 274 273 271 272 278 306 314
0 358 355 352 345 337 331 324 319 314 308 301 300 307 320 341 310 184 129 96 356 12 36 25 21 42 26 261 238 262 245 252 276 272 286 282 286 265 246 263 263 254 265 278 286
356 355 355 355 349 341 335 332 325 316 307 304 305 311 332 35 251 182 142 134 76 68 66 73 62 104 273 258 296 223 266 272 273 283 272 269 259 257 264 251 257 265 270 271 272
353 351 351 353 352 344 336 332 324 315 304 295 293 289 155 245 187 175 169 161 105 112 122 133 169 183 232 241 201 259 276 285 284 275 259 261 268 175 250 253 261 256 260 262 256
350 348 349 351 352 347 340 332 321 308 293 283 268 199 155 241 208 194 188 182 182 155 154 194 165 130 160 260 276 276 302 303 264 229 279 210 275 225 248 281 267 251 254 268 253
348 347 345 347 349 346 339 333 326 318 299 267 202 168 242 226 216 212 209 216 214 218 228 237 187 164 198 301 318 316 281 340 269 322 281 166 280 265 270 246 265 259 264 262 267
347 346 345 344 343 343 337 336 338 344 356 148 150 170 266 226 216 231 218 196 160 192 222 167 113 219 10 342 350 6 293 281 311 212 239 222 283 271 265 258 257 264 272 265 262
346 345 344 341 340 339 337 334 318 346 98 141 120 9 252 233 173 170 183 173 136 134 83 122 49 335 22 91 280 279 307 278 262 274 269 280 268 277 265 242 247 258 260 260 250
345 344 341 339 339 338 340 335 10 337 190 211 200 218 189 135 160 160 155 143 120 105 203 68 2 232 237 207 218 229 244 266 275 280 278 261 277 289 294 247 248 252 258 259 261
346 341 340 337 335 335 347 66 142 266 306 235 245 285 251 175 283 186 165 154 163 218 132 6 238 233 228 191 208 221 270 277 285 225 281 312 297 294 298 252 230 242 247 240 254
343 337 336 335 330 45 40 101 343 343 246 295 205 194 200 158 221 225 158 163 187 216 198 200 237 96 176 221 228 233 221 249 262 324 271 327 291 326 289 290 272 258 253 260 247
340 334 333 334 84 344 32 9 301 160 39 276 274 331 85 135 265 117 177 141 204 233 218 233 276 209 204 240 171 275 207 249 277 5 308 24 292 308 325 321 258 296 265 271 269
342 335 327 322 305 3 349 346 317 257 360 271 131 102 47 198 136 118 179 110 209 206 104 259 227 220 230 225 166 236 197 260 277 235 355 341 326 273 327 317 318 327 314 304 297
345 343 349 39 37 336 315 321 339 45 258 347 92 16 340 185 295 90 121 33 152 255 227 250 310 241 219 248 198 347 320 45 59 131 340 231 112 285 281 241 311 305 303 299 312
351 20 38 33 352 344 329 28 40 142 326 325 333 75 175 250 264 178 191 220 219 323 318 312 221 244 184 239 123 120 34 324 346 1 244 164 219 254 275 273 257 296 307 316 305
6 60 39 21 356 345 356 52 157 251 310 349 338 292 232 23 242 226 233 287 219 114 320 253 317 181 183 208 182 173 158 170 268 277 291 121 233 254 233 283 276 278 283 287 311
39 61 33 358 355 346 64 68 228 26 306 328 321 336 328 331 233 327 214 251 292 185 188 209 269 203 191 165 150 160 188 190 281 31 330 251 272 294 294 297 273 313 349 325 317
25 69 14 351 1 29 67 244 13 33 321 320 297 32 332 318 356 330 286 5 331 306 115 283 304 256 172 137 32 180 156 78 24 289 274 274 273 247 287 288 319 331 329 318 307
14 59 353 358 54 49 109 324 335 10 8 4 339 327 325 326 315 285 302 30 347 323 322 334 167 288 325 210 192 148 214 158 158 181 232 298 247 227 249 266 297 295 288 283 286
3 38 355 8 51 27 42 337 355 349 7 360 46 11 336 330 309 276 7 64 357 336 9 300 242 276 244 299 192 178 201 157 154 232 232 214 269 246 256 302 295 282 278 269 261
52 286 1 35 66 7 329 341 56 12 12 6 15 25 1 322 324 31 346 135 18 30 6 334 324 328 332 14 57 250 201 174 125 109 203 220 261 293 287 318 306 280 289 277 256
56 16 349 34 28 53 2 350 335 16 70 353 13 56 357 350 5 313 311 333 344 338 321 295 240 212 244 259 25 284 300 242 204 244 269 244 281 292 295 309 312 308 300 274 248
30 60 100 357 357 354 336 347 3 2 13 352 109 46 8 302 299 278 345 331 336 309 346 30 276 258 263 266 277 275 268 252 242 253 252 281 280 281 296 306 302 297 298 285 252
79 31 2 313 298 346 0 12 27 335 288 13 30 340 315 246 260 299 325 298 231 301 6 348 270 326 286 273 266 272 267 260 253 262 260 263 274 294 319 326 312 309 304 286 250
37 61 61 321 332 337 36 4 329 333 252 268 354 333 297 276 263 272 260 252 251 266 273 265 261 273 273 285 291 274 261 240 249 239 252 266 330 338 340 331 315 307 309 300 252
Height
841 839 837 834 831 829 827 826 825 824 823 821 819 818 816 812 810 808 808 809 808 807 804 802 802 801 801 803 804 807 814 813 808 805 796 791 792 788 784 782 777 772 764 760 759
842 839 836 833 831 828 826 824 822 821 820 819 817 816 814 812 809 808 808 807 807 806 804 803 804 802 804 804 806 810 816 807 799 796 793 790 791 788 786 780 776 771 763 759 758
842 839 836 832 829 827 824 822 820 818 817 816 815 814 813 811 810 805 805 805 806 804 804 804 804 804 805 806 807 809 809 803 795 792 790 788 785 784 782 778 773 769 761 757 758
842 839 835 831 828 825 822 820 818 817 815 813 812 812 811 812 816 803 804 804 804 803 803 804 805 807 809 808 806 809 800 799 792 788 788 785 782 779 775 770 764 760 757 756 754
842 838 834 830 826 823 820 818 816 814 813 811 810 811 811 813 807 802 803 803 803 803 803 805 807 809 809 809 808 806 798 793 790 788 785 783 778 775 770 760 755 756 754 752 751
841 837 833 829 825 821 818 816 814 812 810 808 808 809 811 813 799 800 801 802 802 802 804 804 805 806 808 809 807 801 797 791 785 782 781 778 771 772 757 752 752 750 747 746 745
839 835 831 828 824 819 816 813 811 809 807 806 807 808 809 804 798 798 798 800 801 802 804 804 804 806 807 807 802 799 799 788 781 778 777 775 768 766 750 752 749 744 740 739 739
838 834 830 826 822 818 814 811 807 805 804 804 805 807 805 796 796 797 798 799 800 801 803 804 804 805 806 804 799 800 800 792 776 777 772 773 763 754 748 749 744 740 736 735 734
837 833 829 825 821 817 813 809 806 805 804 803 805 806 801 794 794 795 797 799 799 801 802 803 804 805 805 806 805 805 799 796 784 775 774 771 758 743 743 743 740 735 731 730 729
836 831 828 823 819 815 811 806 805 805 806 805 806 810 798 792 791 793 795 798 799 800 802 804 808 808 810 807 803 806 801 799 789 776 773 768 755 739 736 739 733 728 727 726 725
834 829 825 821 817 813 810 807 808 808 806 796 792 792 790 791 791 793 795 797 799 801 804 805 808 805 795 801 796 798 803 798 781 773 775 761 750 735 727 730 728 726 725 724 721
832 828 823 820 815 812 811 811 813 815 807 789 791 791 789 789 790 792 794 798 799 801 803 808 805 792 792 794 798 800 799 790 777 773 770 758 745 731 728 724 722 721 720 720 719
831 826 821 816 812 811 810 812 812 813 816 789 787 786 784 787 789 789 792 794 797 799 803 802 786 787 789 789 793 795 793 788 781 773 767 761 741 735 727 725 719 718 717 718 716
829 823 818 813 814 812 812 812 811 811 827 791 785 784 785 785 787 787 789 792 795 795 796 800 788 786 788 789 789 790 781 781 778 778 781 771 760 741 731 720 720 718 717 715 714
826 820 815 812 813 813 814 811 812 813 844 785 785 785 785 788 787 788 788 789 791 791 795 785 783 785 787 781 783 778 774 776 776 779 785 775 778 736 734 720 713 713 714 714 712
823 817 812 812 812 813 813 811 813 833 834 791 785 787 786 786 786 789 789 789 789 791 793 787 783 782 778 775 779 777 777 780 787 783 777 771 770 741 732 720 718 712 714 714 711
820 818 815 815 816 814 812 812 834 846 789 789 787 785 786 785 785 788 790 792 788 788 785 783 780 777 774 775 776 777 784 784 783 788 761 772 773 739 724 722 722 717 712 712 709
819 819 819 819 817 814 813 822 830 804 800 797 791 788 788 786 785 786 790 791 787 786 793 797 779 773 772 770 770 778 779 791 782 776 771 772 764 733 720 720 719 716 713 710 707
819 819 819 819 817 816 821 848 827 814 817 809 799 792 790 787 790 787 789 786 782 789 789 793 778 768 769 767 768 776 781 779 777 797 790 759 747 728 716 711 711 712 710 709 706
820 820 820 816 816 818 828 827 821 822 821 808 805 800 800 799 794 789 786 806 798 786 787 784 788 767 767 768 772 770 774 780 792 780 769 759 751 737 719 709 709 711 710 709 706
823 824 824 816 816 823 840 837 830 826 830 824 817 814 810 808 803 797 789 815 810 797 789 786 794 776 770 771 769 777 775 777 782 783 769 769 745 723 718 711 713 710 710 708 704
827 833 825 817 830 844 844 844 836 835 834 830 827 829 829 824 812 796 803 812 817 810 809 799 800 798 775 765 767 770 771 776 773 770 783 779 739 706 710 714 715 711 705 702 701
840 841 830 822 849 855 851 843 842 842 843 840 839 838 836 836 827 817 816 816 819 816 819 807 802 805 776 767 766 766 769 770 777 781 774 768 726 706 711 712 706 710 700 698 697
847 854 850 848 862 859 862 856 849 847 847 846 848 845 846 845 834 832 826 819 821 819 811 807 806 794 786 775 787 779 770 768 770 777 762 740 725 712 706 713 704 698 693 694 693
858 873 875 876 866 870 863 860 855 855 852 849 850 855 858 854 843 835 833 835 827 819 816 815 803 799 793 791 789 780 775 774 772 761 766 735 735 724 715 713 705 697 691 693 690
871 878 876 878 874 870 864 868 863 863 862 853 854 857 858 859 849 846 845 843 837 823 822 819 810 805 786 783 778 767 757 760 756 751 749 747 732 727 725 721 709 699 693 690 688
874 876 876 875 874 870 872 870 866 867 857 854 857 860 854 846 844 842 838 834 829 826 826 827 818 808 789 776 774 766 741 741 738 744 743 745 743 740 734 728 716 702 696 688 686